Terminal Aerodrome Forecast
Issued by NWS

Home | Current Version | Previous Version | Text Only | Print | Product List | Glossary On
Versions: 1 2 3 4 5 6 7 8 9 10 11 12 13
000
FTUS46 KSTO 201100 RRA
TAFSAC
TAF
KSAC 201142Z 2012/2112 18005KT P6SM FEW120
     FM202100 21007KT P6SM FEW120
     FM210900 15004KT P6SM SKC=

USA.gov is the U.S. government's official web portal to all federal, state and local government web resources and services.